Time,TemperatureF,DewpointF,PressureIn,WindDirection,WindDirectionDegrees,WindSpeedMPH,WindSpeedGustMPH,Humidity,HourlyPrecipIn,Conditions,Clouds,dailyrainin,SoftwareType,DateUTC
2013-04-30 00:07:00,63.9,57.0,29.45,ESE,121,2.0,-999.0,79,-99.99,,,0.00,weatherlink.com 1.10,2013-04-30 05:07:00,
2013-04-30 00:22:00,64.4,57.0,29.45,ESE,110,4.0,-999.0,78,-99.99,,,0.00,weatherlink.com 1.10,2013-04-30 05:22:00,
2013-04-30 00:37:00,64.5,57.0,29.44,East,101,3.0,-999.0,77,-99.99,,,0.00,weatherlink.com 1.10,2013-04-30 05:37:00,
2013-04-30 00:52:00,64.5,57.0,29.44,East,87,2.0,-999.0,77,-99.99,,,0.00,weatherlink.com 1.10,2013-04-30 05:52:00,
2013-04-30 01:07:00,64.4,57.0,29.43,SE,141,1.0,-999.0,77,-99.99,,,0.00,weatherlink.com 1.10,2013-04-30 06:07:00,
2013-04-30 01:22:00,64.2,57.0,29.42,East,98,1.0,-999.0,78,-99.99,,,0.00,weatherlink.com 1.10,2013-04-30 06:22:00,
2013-04-30 01:38:00,64.1,57.0,29.41,ESE,109,3.0,-999.0,78,-99.99,,,0.00,weatherlink.com 1.10,2013-04-30 06:38:00,
2013-04-30 01:53:00,63.7,57.0,29.40,ESE,119,2.0,-999.0,78,-99.99,,,0.00,weatherlink.com 1.10,2013-04-30 06:53:00,
2013-04-30 02:08:00,63.2,56.0,29.39,ENE,76,0.0,-999.0,78,-99.99,,,0.00,weatherlink.com 1.10,2013-04-30 07:08:00,
2013-04-30 02:23:00,62.8,56.0,29.38,ESE,109,0.0,-999.0,79,-99.99,,,0.00,weatherlink.com 1.10,2013-04-30 07:23:00,
2013-04-30 02:38:00,62.7,56.0,29.38,East,101,3.0,-999.0,80,-99.99,,,0.00,weatherlink.com 1.10,2013-04-30 07:38:00,
2013-04-30 02:53:00,62.8,57.0,29.37,ESE,107,5.0,-999.0,80,-99.99,,,0.00,weatherlink.com 1.10,2013-04-30 07:53:00,
2013-04-30 03:08:00,62.9,56.0,29.37,East,86,5.0,-999.0,79,-99.99,,,0.00,weatherlink.com 1.10,2013-04-30 08:08:00,
2013-04-30 03:23:00,63.1,57.0,29.36,South,173,3.0,-999.0,79,-99.99,,,0.00,weatherlink.com 1.10,2013-04-30 08:23:00,
2013-04-30 03:38:00,63.3,56.0,29.36,ESE,123,1.0,-999.0,78,-99.99,,,0.00,weatherlink.com 1.10,2013-04-30 08:38:00,
2013-04-30 03:53:00,63.6,57.0,29.35,SSE,148,7.0,-999.0,78,-99.99,,,0.00,weatherlink.com 1.10,2013-04-30 08:53:00,
2013-04-30 04:08:00,63.8,56.0,29.34,East,90,4.0,-999.0,77,-99.99,,,0.00,weatherlink.com 1.10,2013-04-30 09:08:00,
2013-04-30 04:23:00,63.9,57.0,29.34,SE,138,6.0,-999.0,77,-99.99,,,0.00,weatherlink.com 1.10,2013-04-30 09:23:00,
2013-04-30 04:38:00,64.0,57.0,29.33,SSW,207,4.0,-999.0,77,-99.99,,,0.00,weatherlink.com 1.10,2013-04-30 09:38:00,
2013-04-30 04:53:00,63.8,56.0,29.33,SSW,203,2.0,-999.0,77,-99.99,,,0.00,weatherlink.com 1.10,2013-04-30 09:53:00,
2013-04-30 05:08:00,63.5,57.0,29.32,SE,124,4.0,-999.0,78,-99.99,,,0.00,weatherlink.com 1.10,2013-04-30 10:08:00,
2013-04-30 05:23:00,63.4,57.0,29.32,ESE,109,3.0,-999.0,79,-99.99,,,0.00,weatherlink.com 1.10,2013-04-30 10:23:00,
2013-04-30 05:38:00,63.2,57.0,29.32,East,101,5.0,-999.0,79,-99.99,,,0.00,weatherlink.com 1.10,2013-04-30 10:38:00,
2013-04-30 05:54:00,62.9,57.0,29.31,SSE,153,0.0,-999.0,81,-99.99,,,0.00,weatherlink.com 1.10,2013-04-30 10:54:00,
2013-04-30 06:08:00,63.0,57.0,29.31,South,186,2.0,-999.0,82,-99.99,,,0.00,weatherlink.com 1.10,2013-04-30 11:08:00,
2013-04-30 06:23:00,63.2,58.0,29.31,SSW,205,2.0,-999.0,82,-99.99,,,0.00,weatherlink.com 1.10,2013-04-30 11:23:00,
2013-04-30 06:38:00,63.8,59.0,29.31,ESE,117,3.0,-999.0,83,-99.99,,,0.00,weatherlink.com 1.10,2013-04-30 11:38:00,
2013-04-30 06:53:00,65.3,59.0,29.32,WSW,249,4.0,-999.0,81,-99.99,,,0.00,weatherlink.com 1.10,2013-04-30 11:53:00,
2013-04-30 07:08:00,66.3,60.0,29.32,SE,136,1.0,-999.0,80,-99.99,,,0.00,weatherlink.com 1.10,2013-04-30 12:08:00,
2013-04-30 07:23:00,67.8,60.0,29.32,SSE,163,1.0,-999.0,77,-99.99,,,0.00,weatherlink.com 1.10,2013-04-30 12:23:00,
2013-04-30 07:38:00,68.3,60.0,29.33,SW,230,5.0,-999.0,75,-99.99,,,0.00,weatherlink.com 1.10,2013-04-30 12:38:00,
2013-04-30 07:53:00,68.5,60.0,29.33,SW,234,4.0,-999.0,75,-99.99,,,0.00,weatherlink.com 1.10,2013-04-30 12:53:00,
2013-04-30 08:08:00,68.7,60.0,29.35,West,260,5.0,-999.0,73,-99.99,,,0.00,weatherlink.com 1.10,2013-04-30 13:08:00,
2013-04-30 08:23:00,69.0,59.0,29.36,WSW,243,6.0,-999.0,70,-99.99,,,0.00,weatherlink.com 1.10,2013-04-30 13:23:00,
2013-04-30 08:38:00,68.6,56.0,29.37,WSW,246,3.0,-999.0,64,-99.99,,,0.00,weatherlink.com 1.10,2013-04-30 13:38:00,
2013-04-30 08:53:00,68.5,55.0,29.38,WSW,246,1.0,-999.0,62,-99.99,,,0.00,weatherlink.com 1.10,2013-04-30 13:53:00,
2013-04-30 09:08:00,68.5,53.0,29.39,WSW,248,7.0,-999.0,58,-99.99,,,0.00,weatherlink.com 1.10,2013-04-30 14:08:00,
2013-04-30 09:23:00,68.3,53.0,29.40,WSW,250,2.0,-999.0,58,-99.99,,,0.00,weatherlink.com 1.10,2013-04-30 14:23:00,
2013-04-30 09:38:00,67.0,51.0,29.41,WSW,252,5.0,-999.0,57,-99.99,,,0.00,weatherlink.com 1.10,2013-04-30 14:38:00,
2013-04-30 09:53:00,66.6,51.0,29.44,West,260,5.0,-999.0,58,-99.99,,,0.00,weatherlink.com 1.10,2013-04-30 14:53:00,
2013-04-30 10:09:00,-999.0,-99.9,29.46,North,-999,-999.0,-999.0,-999,-99.99,,,0.00,weatherlink.com 1.10,2013-04-30 15:09:00,
2013-04-30 10:24:00,-999.0,-99.9,29.48,North,-999,-999.0,-999.0,-999,-99.99,,,0.00,weatherlink.com 1.10,2013-04-30 15:24:00,
2013-04-30 10:39:00,65.8,49.0,29.48,WSW,254,5.0,-999.0,55,-99.99,,,0.00,weatherlink.com 1.10,2013-04-30 15:39:00,
2013-04-30 10:54:00,64.5,48.0,29.49,NW,319,6.0,-999.0,56,-99.99,,,0.00,weatherlink.com 1.10,2013-04-30 15:54:00,
2013-04-30 11:09:00,64.4,48.0,29.51,WSW,246,1.0,-999.0,56,-99.99,,,0.00,weatherlink.com 1.10,2013-04-30 16:09:00,
2013-04-30 11:24:00,64.5,47.0,29.52,West,259,4.0,-999.0,54,-99.99,,,0.00,weatherlink.com 1.10,2013-04-30 16:24:00,
2013-04-30 11:39:00,64.9,48.0,29.53,WSW,254,2.0,-999.0,54,-99.99,,,0.00,weatherlink.com 1.10,2013-04-30 16:39:00,
2013-04-30 11:54:00,64.8,47.0,29.52,WSW,253,2.0,-999.0,53,-99.99,,,0.00,weatherlink.com 1.10,2013-04-30 16:54:00,
2013-04-30 12:09:00,64.1,46.0,29.56,WSW,252,5.0,-999.0,52,-99.99,,,0.00,weatherlink.com 1.10,2013-04-30 17:09:00,
2013-04-30 12:24:00,63.7,46.0,29.57,NW,307,1.0,-999.0,52,-99.99,,,0.00,weatherlink.com 1.10,2013-04-30 17:24:00,
2013-04-30 12:39:00,65.4,48.0,29.59,WSW,246,4.0,-999.0,53,-99.99,,,0.00,weatherlink.com 1.10,2013-04-30 17:39:00,
2013-04-30 12:54:00,64.8,47.0,29.59,NW,315,1.0,-999.0,52,-99.99,,,0.00,weatherlink.com 1.10,2013-04-30 17:54:00,
2013-04-30 13:09:00,64.0,47.0,29.59,West,271,1.0,-999.0,54,-99.99,,,0.00,weatherlink.com 1.10,2013-04-30 18:09:00,
2013-04-30 13:24:00,63.8,47.0,29.59,WSW,253,5.0,-999.0,54,-99.99,,,0.00,weatherlink.com 1.10,2013-04-30 18:24:00,
2013-04-30 13:39:00,64.3,47.0,29.56,WSW,249,4.0,-999.0,53,-99.99,,,0.00,weatherlink.com 1.10,2013-04-30 18:39:00,
2013-04-30 13:54:00,64.6,46.0,29.59,SW,229,2.0,-999.0,52,-99.99,,,0.00,weatherlink.com 1.10,2013-04-30 18:54:00,
2013-04-30 14:09:00,66.3,46.0,29.61,SW,230,1.0,-999.0,48,-99.99,,,0.00,weatherlink.com 1.10,2013-04-30 19:09:00,
2013-04-30 14:24:00,66.2,45.0,29.60,WSW,250,1.0,-999.0,46,-99.99,,,0.00,weatherlink.com 1.10,2013-04-30 19:24:00,
2013-04-30 14:39:00,66.7,44.0,29.60,SW,236,2.0,-999.0,44,-99.99,,,0.00,weatherlink.com 1.10,2013-04-30 19:39:00,
2013-04-30 14:54:00,68.2,39.0,29.61,NNW,348,7.0,-999.0,34,-99.99,,,0.00,weatherlink.com 1.10,2013-04-30 19:54:00,
2013-04-30 15:09:00,67.7,38.0,29.64,WSW,255,5.0,-999.0,34,-99.99,,,0.00,weatherlink.com 1.10,2013-04-30 20:09:00,
2013-04-30 15:24:00,69.6,38.0,29.63,West,261,6.0,-999.0,32,-99.99,,,0.00,weatherlink.com 1.10,2013-04-30 20:24:00,
2013-04-30 15:39:00,70.5,38.0,29.63,WSW,240,0.0,-999.0,30,-99.99,,,0.00,weatherlink.com 1.10,2013-04-30 20:39:00,
2013-04-30 15:54:00,70.0,35.0,29.63,West,271,1.0,-999.0,28,-99.99,,,0.00,weatherlink.com 1.10,2013-04-30 20:54:00,
2013-04-30 16:09:00,68.2,36.0,29.66,WSW,252,6.0,-999.0,30,-99.99,,,0.00,weatherlink.com 1.10,2013-04-30 21:09:00,
2013-04-30 16:24:00,67.1,37.0,29.65,SW,223,3.0,-999.0,33,-99.99,,,0.00,weatherlink.com 1.10,2013-04-30 21:24:00,
2013-04-30 16:39:00,67.2,35.0,29.69,WSW,248,5.0,-999.0,30,-99.99,,,0.00,weatherlink.com 1.10,2013-04-30 21:39:00,
2013-04-30 16:54:00,68.4,35.0,29.70,WSW,245,3.0,-999.0,29,-99.99,,,0.00,weatherlink.com 1.10,2013-04-30 21:54:00,
2013-04-30 17:09:00,68.3,35.0,29.72,WSW,258,2.0,-999.0,29,-99.99,,,0.00,weatherlink.com 1.10,2013-04-30 22:09:00,
2013-04-30 17:24:00,67.1,31.0,29.73,WSW,248,4.0,-999.0,26,-99.99,,,0.00,weatherlink.com 1.10,2013-04-30 22:24:00,
2013-04-30 17:39:00,67.5,33.0,29.73,West,276,1.0,-999.0,28,-99.99,,,0.00,weatherlink.com 1.10,2013-04-30 22:39:00,
2013-04-30 17:54:00,67.0,33.0,29.74,WNW,292,1.0,-999.0,28,-99.99,,,0.00,weatherlink.com 1.10,2013-04-30 22:54:00,
2013-04-30 18:09:00,66.8,32.0,29.74,WSW,239,1.0,-999.0,27,-99.99,,,0.00,weatherlink.com 1.10,2013-04-30 23:09:00,
2013-04-30 18:24:00,65.7,32.0,29.75,SW,229,5.0,-999.0,28,-99.99,,,0.00,weatherlink.com 1.10,2013-04-30 23:24:00,
2013-04-30 18:40:00,65.0,32.0,29.76,SW,230,4.0,-999.0,29,-99.99,,,0.00,weatherlink.com 1.10,2013-04-30 23:40:00,
2013-04-30 18:55:00,64.5,34.0,29.77,WSW,252,4.0,-999.0,32,-99.99,,,0.00,weatherlink.com 1.10,2013-04-30 23:55:00,
2013-04-30 19:10:00,63.8,35.0,29.77,West,264,0.0,-999.0,34,-99.99,,,0.00,weatherlink.com 1.10,2013-05-01 00:10:00,
2013-04-30 19:25:00,63.0,35.0,29.78,SW,229,1.0,-999.0,36,-99.99,,,0.00,weatherlink.com 1.10,2013-05-01 00:25:00,
2013-04-30 19:40:00,62.4,36.0,29.77,WSW,239,3.0,-999.0,37,-99.99,,,0.00,weatherlink.com 1.10,2013-05-01 00:40:00,
2013-04-30 19:55:00,61.5,35.0,29.78,WSW,252,0.0,-999.0,38,-99.99,,,0.00,weatherlink.com 1.10,2013-05-01 00:55:00,
2013-04-30 20:10:00,60.7,37.0,29.79,WSW,252,2.0,-999.0,41,-99.99,,,0.00,weatherlink.com 1.10,2013-05-01 01:10:00,
2013-04-30 20:25:00,60.1,37.0,29.78,NW,317,0.0,-999.0,42,-99.99,,,0.00,weatherlink.com 1.10,2013-05-01 01:25:00,
2013-04-30 20:40:00,59.5,37.0,29.79,NW,321,0.0,-999.0,44,-99.99,,,0.00,weatherlink.com 1.10,2013-05-01 01:40:00,
2013-04-30 20:55:00,58.9,37.0,29.80,West,259,3.0,-999.0,45,-99.99,,,0.00,weatherlink.com 1.10,2013-05-01 01:55:00,
2013-04-30 21:10:00,58.4,37.0,29.81,North,5,0.0,-999.0,46,-99.99,,,0.00,weatherlink.com 1.10,2013-05-01 02:10:00,
2013-04-30 21:25:00,57.8,38.0,29.82,North,9,0.0,-999.0,48,-99.99,,,0.00,weatherlink.com 1.10,2013-05-01 02:25:00,
2013-04-30 21:40:00,57.4,38.0,29.82,North,355,0.0,-999.0,49,-99.99,,,0.00,weatherlink.com 1.10,2013-05-01 02:40:00,
2013-04-30 21:55:00,57.4,39.0,29.84,WNW,283,0.0,-999.0,50,-99.99,,,0.00,weatherlink.com 1.10,2013-05-01 02:55:00,
2013-04-30 22:10:00,57.4,39.0,29.85,SSW,210,1.0,-999.0,50,-99.99,,,0.00,weatherlink.com 1.10,2013-05-01 03:10:00,
2013-04-30 22:25:00,57.2,39.0,29.86,WSW,255,0.0,-999.0,51,-99.99,,,0.00,weatherlink.com 1.10,2013-05-01 03:25:00,
2013-04-30 22:40:00,57.0,39.0,29.86,ESE,117,1.0,-999.0,51,-99.99,,,0.00,weatherlink.com 1.10,2013-05-01 03:40:00,
2013-04-30 22:55:00,56.8,38.0,29.87,NNW,331,0.0,-999.0,50,-99.99,,,0.00,weatherlink.com 1.10,2013-05-01 03:55:00,
2013-04-30 23:10:00,56.5,38.0,29.87,WNW,295,1.0,-999.0,50,-99.99,,,0.00,weatherlink.com 1.10,2013-05-01 04:10:00,
2013-04-30 23:25:00,56.1,37.0,29.88,West,259,2.0,-999.0,49,-99.99,,,0.00,weatherlink.com 1.10,2013-05-01 04:25:00,
2013-04-30 23:40:00,55.7,37.0,29.88,NNE,16,0.0,-999.0,50,-99.99,,,0.00,weatherlink.com 1.10,2013-05-01 04:40:00,
2013-04-30 23:55:00,55.4,37.0,29.89,NNW,340,0.0,-999.0,50,-99.99,,,0.00,weatherlink.com 1.10,2013-05-01 04:55:00,